Gdf Suez North Sea — HPSQ — position and weather

sailwx.info

Track history (hours):
 
Tides and Currents Weather Stations Pressure Air Temp Water Temp Dewpoint Dewpoint Depression Visibility Wind Speed Wind Dir Waves Ship Positions

Gdf Suez North Sea

Last reported at 2014-Nov-24 18:25 UTC. Time now 2014-Nov-26 06:26 UTC.
Position N 01°11' E 103°40'.

Length 190 m; draft 9.7 m.

Type: Ship. MMSI: 373341000.

Date/timePositionNaut miles runAvg speedWind from/ knotsBaromVisibWave heightAir tempDewpointWater temp
2014-Nov-24 18:25N 01°11' E 103°40'1011.3
2014-Nov-24 17:33N 01°11' E 103°49'1111.0
2014-Nov-24 16:33N 01°16' E 103°59'1 0.5
2014-Nov-24 15:30N 01°17' E 103°58'0 0.0
2014-Nov-24 14:12N 01°17' E 103°58'0 0.1
2014-Nov-24 13:15N 01°17' E 103°58'0 0.1
2014-Nov-24 12:18N 01°17' E 103°58'0 0.0
2014-Nov-24 11:24N 01°17' E 103°58'0 0.0
2014-Nov-24 10:24N 01°17' E 103°58'0 0.0
2014-Nov-24 08:30N 01°17' E 103°58'0 0.0
2014-Nov-24 06:18N 01°17' E 103°58'0 0.0
2014-Nov-24 05:18N 01°17' E 103°58'0 0.2
2014-Nov-24 04:30N 01°17' E 103°58'0 0.0
2014-Nov-24 02:33N 01°17' E 103°58'1 1.4
2014-Nov-24 01:33N 01°16' E 103°58'4 3.9
2014-Nov-24 00:33N 01°16' E 104°02'5 4.9
2014-Nov-23 23:33N 01°17' E 104°07'7 7.1
2014-Nov-23 22:32N 01°18' E 104°14'  
2014-Nov-18 13:33N 22°12' E 120°01'1111.5
2014-Nov-18 12:33N 22°22' E 120°07'1111.4
2014-Nov-18 11:33N 22°31' E 120°13'6 5.8
2014-Nov-18 10:33N 22°35' E 120°18'1 1.2
2014-Nov-18 09:31N 22°36' E 120°17'0 0.0
2014-Nov-18 08:31N 22°36' E 120°17'0 0.0
2014-Nov-18 07:31N 22°36' E 120°17'0 0.0
2014-Nov-18 06:25N 22°36' E 120°17'0 0.0
2014-Nov-18 05:31N 22°36' E 120°17'0 0.0
2014-Nov-18 04:31N 22°36' E 120°17'0 0.0
2014-Nov-18 03:31N 22°36' E 120°17'0 0.0
2014-Nov-18 02:31N 22°36' E 120°17'0 0.0
2014-Nov-18 01:25N 22°36' E 120°17'0 0.0
2014-Nov-18 00:31N 22°36' E 120°17'0 0.1
2014-Nov-17 23:33N 22°36' E 120°17'4 3.8
2014-Nov-17 22:33N 22°38' E 120°14'2 1.8
2014-Nov-17 21:29N 22°36' E 120°13'0 0.1
2014-Nov-17 20:29N 22°36' E 120°13'0 0.0
2014-Nov-17 19:29N 22°36' E 120°13'0 0.1
2014-Nov-17 18:29N 22°36' E 120°13'0 0.0
2014-Nov-17 17:29N 22°36' E 120°13'0 0.1
2014-Nov-17 16:29N 22°36' E 120°13'0 0.1
2014-Nov-17 15:29N 22°36' E 120°13'0 0.0
2014-Nov-17 14:29N 22°36' E 120°13'0 0.1
2014-Nov-17 13:29N 22°36' E 120°13'0 0.2
2014-Nov-17 12:29N 22°36' E 120°13'3 3.6
2014-Nov-17 11:33N 22°38' E 120°10'1110.8
2014-Nov-17 10:33N 22°47' E 120°04'  
Track history (hours):
 
Tides and Currents Weather Stations Pressure Air Temp Water Temp Dewpoint Dewpoint Depression Visibility Wind Speed Wind Dir Waves Ship Positions

Gdf Suez North Sea

Last reported at 2014-Nov-24 18:25 UTC. Time now 2014-Nov-26 06:26 UTC.
Position N 01°11' E 103°40'.

Length 190 m; draft 9.7 m.

Type: Ship. MMSI: 373341000.

Date/timePositionNaut miles runAvg speedWind from/ knotsBaromVisibWave heightAir tempDewpointWater temp
2014-Nov-24 18:25N 01°11' E 103°40'1011.3
2014-Nov-24 17:33N 01°11' E 103°49'1111.0
2014-Nov-24 16:33N 01°16' E 103°59'1 0.5
2014-Nov-24 15:30N 01°17' E 103°58'0 0.0
2014-Nov-24 14:12N 01°17' E 103°58'0 0.1
2014-Nov-24 13:15N 01°17' E 103°58'0 0.1
2014-Nov-24 12:18N 01°17' E 103°58'0 0.0
2014-Nov-24 11:24N 01°17' E 103°58'0 0.0
2014-Nov-24 10:24N 01°17' E 103°58'0 0.0
2014-Nov-24 08:30N 01°17' E 103°58'0 0.0
2014-Nov-24 06:18N 01°17' E 103°58'0 0.0
2014-Nov-24 05:18N 01°17' E 103°58'0 0.2
2014-Nov-24 04:30N 01°17' E 103°58'0 0.0
2014-Nov-24 02:33N 01°17' E 103°58'1 1.4
2014-Nov-24 01:33N 01°16' E 103°58'4 3.9
2014-Nov-24 00:33N 01°16' E 104°02'5 4.9
2014-Nov-23 23:33N 01°17' E 104°07'7 7.1
2014-Nov-23 22:32N 01°18' E 104°14'  
2014-Nov-18 13:33N 22°12' E 120°01'1111.5
2014-Nov-18 12:33N 22°22' E 120°07'1111.4
2014-Nov-18 11:33N 22°31' E 120°13'6 5.8
2014-Nov-18 10:33N 22°35' E 120°18'1 1.2
2014-Nov-18 09:31N 22°36' E 120°17'0 0.0
2014-Nov-18 08:31N 22°36' E 120°17'0 0.0
2014-Nov-18 07:31N 22°36' E 120°17'0 0.0
2014-Nov-18 06:25N 22°36' E 120°17'0 0.0
2014-Nov-18 05:31N 22°36' E 120°17'0 0.0
2014-Nov-18 04:31N 22°36' E 120°17'0 0.0
2014-Nov-18 03:31N 22°36' E 120°17'0 0.0
2014-Nov-18 02:31N 22°36' E 120°17'0 0.0
2014-Nov-18 01:25N 22°36' E 120°17'0 0.0
2014-Nov-18 00:31N 22°36' E 120°17'0 0.1
2014-Nov-17 23:33N 22°36' E 120°17'4 3.8
2014-Nov-17 22:33N 22°38' E 120°14'2 1.8
2014-Nov-17 21:29N 22°36' E 120°13'0 0.1
2014-Nov-17 20:29N 22°36' E 120°13'0 0.0
2014-Nov-17 19:29N 22°36' E 120°13'0 0.1
2014-Nov-17 18:29N 22°36' E 120°13'0 0.0
2014-Nov-17 17:29N 22°36' E 120°13'0 0.1
2014-Nov-17 16:29N 22°36' E 120°13'0 0.1
2014-Nov-17 15:29N 22°36' E 120°13'0 0.0
2014-Nov-17 14:29N 22°36' E 120°13'0 0.1
2014-Nov-17 13:29N 22°36' E 120°13'0 0.2
2014-Nov-17 12:29N 22°36' E 120°13'3 3.6
2014-Nov-17 11:33N 22°38' E 120°10'1110.8
2014-Nov-17 10:33N 22°47' E 120°04'  

Dump ship's entire track history